軌道要素
Epoch 2014 Oct. 30.0 TT = JDT 2456960.5
T 2014 Oct. 28.23866 TT MPCW
q 0.8617320 (2000.0) P Q
z +0.0126664 Peri. 314.69826 +0.28483586 +0.54128879
+/-0.0000171 Node 305.81043 -0.33138244 -0.71882155
e 0.9890849 Incl. 77.30182 -0.89947441 +0.43623620
From 43 observations 2015 Feb. 23-Oct. 15, mean residual 0".8.
|